RH
86 86 86 87 87 87 87 87 88 88 88 88 89 90 93 93 91 79 25 22 31 70 50 20 33 36 45 53 55 58 71 62 47 46 44 29 42 38 39 45 41 42 58 59 65
89 90 88 86 86 86 87 87 87 88 88 88 88 90 92 93 77 44 34 62 75 68 19 40 47 46 64 55 58 72 70 58 41 39 40 34 36 38 46 45 48 55 55 57 63
86 85 88 86 85 86 86 86 87 86 87 87 88 88 92 93 38 17 58 66 73 54 35 42 40 45 62 58 60 73 62 52 42 40 42 40 29 35 47 54 49 63 63 62 63
85 86 87 90 86 85 85 86 86 86 87 87 87 88 92 80 24 19 76 78 74 22 35 45 49 53 64 62 56 57 56 51 49 42 44 45 40 39 43 45 41 51 56 59 62
84 85 86 88 91 86 86 86 86 87 87 86 86 87 71 19 15 14 72 71 32 19 20 37 49 56 58 60 52 58 52 47 46 46 43 42 43 38 42 41 40 47 54 58 62
84 85 85 86 87 89 85 86 87 87 86 84 84 88 61 17 10 21 30 28 20 20 25 39 44 47 56 54 55 50 48 45 47 45 45 46 36 36 44 40 44 47 50 50 56
83 84 85 86 86 89 85 86 86 85 84 83 83 75 41 9 21 28 26 23 19 21 23 27 40 44 50 58 57 50 57 57 49 45 47 28 36 45 41 41 44 44 45 44 44
83 84 84 85 87 88 87 88 86 84 82 82 82 81 15 11 13 12 12 23 20 20 25 50 40 50 56 56 53 63 73 66 42 46 35 29 42 46 41 43 45 44 42 42 44
82 83 84 85 85 87 89 90 84 78 78 85 84 62 16 21 21 18 12 13 19 24 25 34 44 54 61 70 70 74 68 74 53 38 33 38 44 42 42 43 44 43 42 41 41
81 82 82 84 87 89 87 86 79 80 77 64 43 27 15 14 18 16 17 14 19 28 25 39 57 63 73 78 77 66 70 56 49 37 36 40 42 42 40 42 42 42 41 40 40
81 83 85 87 89 89 84 75 20 39 52 17 24 12 11 12 12 13 14 18 23 26 39 45 60 60 60 55 53 52 55 46 41 32 41 47 40 39 40 42 43 44 40 40 38
85 86 88 89 90 89 85 48 20 24 28 20 22 17 10 12 13 11 13 17 28 33 38 51 57 38 49 42 46 49 51 48 40 34 35 39 39 33 34 36 36 38 40 37 36
87 89 90 90 90 91 76 46 31 35 32 19 16 19 17 15 14 14 15 21 30 36 41 47 39 35 43 50 52 58 49 48 42 38 40 42 41 38 32 29 30 31 34 34 34
88 86 85 86 70 94 58 51 45 39 30 19 18 14 16 15 16 13 13 20 33 36 43 49 42 38 46 46 52 65 40 39 43 48 49 37 58 42 34 35 30 31 30 31 31
84 84 84 84 96 90 36 60 37 26 19 11 16 11 16 12 14 14 14 28 32 39 45 52 46 43 45 40 39 49 41 40 44 52 53 48 52 43 31 35 32 31 29 28 28
85 83 87 83 93 88 75 52 28 28 33 17 13 15 16 16 16 15 19 27 26 37 44 45 51 43 40 41 40 42 49 49 56 58 60 48 41 44 34 28 27 30 29 28 27
86 85 85 72 55 61 58 28 28 36 19 17 16 14 19 19 16 17 18 27 38 50 56 48 48 47 44 48 49 50 68 83 61 58 52 58 46 38 27 26 28 30 30 28 27
86 91 90 81 88 75 49 27 37 21 22 16 13 16 16 17 18 17 19 21 27 40 49 50 48 49 40 42 50 62 64 60 65 68 54 56 53 31 30 27 29 28 29 30 32
90 96 96 93 81 70 32 36 28 26 16 13 13 16 17 17 17 19 20 21 19 32 38 49 42 37 35 42 44 64 64 66 80 86 74 71 52 34 28 33 34 33 34 38 37
94 98 86 78 68 46 36 46 31 24 15 15 18 16 17 14 19 21 20 17 17 24 29 32 44 45 38 38 41 55 57 70 82 78 75 68 66 42 30 31 38 44 44 48 55
96 67 58 75 52 34 38 40 30 20 15 17 20 18 18 15 17 22 18 16 14 17 27 33 34 40 44 50 54 59 66 72 78 72 68 66 55 43 31 28 35 42 48 54 63
97 41 58 58 29 50 39 33 33 20 17 16 18 15 16 15 15 15 13 16 14 15 28 28 34 42 51 52 46 57 63 70 86 58 72 55 44 28 29 24 29 36 45 60 67
96 87 52 43 39 42 35 25 17 15 13 17 17 15 18 18 17 12 14 9 11 16 21 28 45 70 60 54 57 56 54 62 63 60 55 48 39 21 23 26 25 44 67 73 67
88 60 51 50 54 54 54 42 36 23 20 17 17 17 19 16 14 12 12 10 13 15 47 30 50 34 40 58 48 52 48 44 48 60 48 42 34 29 26 30 47 63 71 69 67
79 68 64 62 51 55 60 45 38 36 29 23 25 18 17 20 15 14 14 12 15 30 20 25 34 35 30 36 39 34 38 43 45 46 38 37 34 29 28 48 66 72 72 68 67
79 95 86 88 65 52 57 48 42 37 38 29 24 20 20 17 12 12 15 19 21 16 19 22 34 32 30 41 38 35 32 33 34 30 34 32 35 31 65 74 76 72 68 70 69
96 90 95 83 69 61 56 50 43 40 37 29 27 31 27 19 16 11 15 21 25 28 19 23 30 37 34 28 38 50 40 34 32 29 29 37 26 45 73 69 70 68 66 66 67
Wind_Speed
18 18 18 18 18 18 18 18 17 17 17 17 18 17 15 15 17 3 7 12 7 6 3 3 5 5 3 5 2 3 4 2 6 9 8 8 4 4 3 15 4 5 8 11 21
18 19 19 19 19 19 19 18 18 17 17 17 18 18 15 14 4 8 14 6 8 12 5 5 5 4 4 3 2 4 3 1 3 7 8 6 4 12 6 11 3 8 16 22 22
19 19 20 20 20 20 20 19 18 17 17 17 17 17 15 12 5 7 3 9 13 10 4 3 6 4 4 1 2 1 1 3 2 1 7 7 3 6 16 6 6 21 22 23 22
19 20 20 20 21 21 21 21 20 19 17 17 17 17 17 2 4 3 7 16 13 7 8 6 3 4 4 6 2 2 7 5 5 3 4 7 5 1 3 6 12 22 27 26 23
20 20 21 21 21 22 22 22 21 20 18 17 15 14 5 3 12 7 11 16 7 5 7 5 2 5 3 3 3 3 4 10 6 10 9 9 11 4 4 10 16 19 22 22 19
21 21 21 21 22 22 22 23 22 21 19 16 13 11 2 5 5 5 8 9 5 5 6 6 5 5 7 2 3 6 11 10 8 16 7 6 2 9 3 13 18 21 21 19 19
21 22 22 23 23 23 24 24 24 23 20 16 9 4 2 18 1 5 5 6 8 4 7 2 6 8 5 5 8 7 9 11 10 5 3 8 3 2 11 15 19 17 17 17 17
22 22 23 23 24 24 25 26 27 25 19 13 7 3 10 5 4 9 4 4 6 7 0 10 7 6 6 5 3 1 2 5 5 8 3 6 6 5 11 16 15 15 15 14 12
22 22 23 24 24 25 25 28 28 15 4 10 5 3 12 6 3 9 8 8 8 5 3 13 5 3 6 3 3 4 4 4 7 1 2 2 1 10 10 11 14 14 14 15 13
22 23 23 23 23 23 28 28 13 4 4 4 3 2 6 5 5 3 4 6 4 8 6 6 3 5 3 2 5 7 3 2 3 3 5 2 4 11 11 9 13 13 14 15 16
20 20 22 23 22 22 17 8 5 2 3 9 8 6 4 4 3 1 1 5 4 5 7 6 6 10 18 16 19 16 3 3 3 3 4 2 4 11 11 8 8 9 13 15 17
21 22 22 23 24 23 1 1 2 5 10 11 14 13 12 5 7 9 7 6 6 7 7 4 8 15 12 21 19 14 11 6 4 5 5 4 5 10 17 20 18 17 16 18 17
22 22 22 24 26 1 2 8 3 7 4 10 9 10 7 11 10 13 8 6 5 7 6 7 5 5 10 8 6 2 8 6 5 2 3 2 7 5 9 17 18 19 18 16 20
22 23 22 28 2 4 5 2 4 3 3 10 6 10 7 9 7 8 9 6 3 11 7 5 5 6 5 7 8 4 6 3 4 5 1 5 6 6 5 15 20 20 19 21 19
23 23 19 11 7 4 1 7 7 3 4 3 4 0 4 12 5 8 8 4 8 6 7 6 6 11 5 6 7 7 3 4 4 5 3 1 3 8 4 7 15 21 23 22 20
25 23 16 3 3 10 10 11 3 7 9 6 5 4 7 4 4 2 6 3 7 6 3 6 2 3 8 3 1 5 3 2 4 4 3 4 6 8 3 6 8 20 23 22 18
27 24 12 3 7 4 6 3 6 4 6 5 1 5 3 5 6 5 6 5 8 6 3 3 2 3 1 4 4 4 5 4 6 4 6 3 4 11 10 8 11 19 23 22 19
31 27 6 13 8 7 2 6 4 4 7 6 5 2 8 5 5 6 6 4 3 5 5 7 3 8 5 6 7 1 5 6 7 5 4 3 5 8 4 15 11 15 16 11 9
28 2 3 5 8 3 6 3 10 7 5 8 9 6 6 1 5 4 8 7 9 9 9 6 7 1 6 5 9 4 3 1 8 5 3 3 8 9 5 5 5 9 9 8 8
7 4 5 5 12 4 6 6 5 5 5 5 5 4 5 5 2 7 8 7 7 11 6 8 3 5 4 7 5 7 6 3 3 6 4 4 6 6 5 3 7 9 11 7 6
2 4 3 5 4 6 5 8 5 7 3 5 3 4 3 4 4 5 9 6 8 7 10 7 6 4 5 5 10 3 5 3 0 4 6 2 8 9 8 7 7 7 6 10 7
4 4 0 3 5 1 4 7 2 2 5 3 3 9 7 4 5 5 10 7 8 10 10 11 8 6 6 3 4 3 6 7 7 6 3 1 9 4 10 8 11 15 9 5 11
3 3 2 3 3 2 6 4 5 5 9 5 4 4 1 3 4 8 5 5 4 6 11 8 3 4 4 6 3 4 6 6 4 4 8 7 10 1 6 6 8 12 10 10 13
2 4 4 3 1 3 4 5 3 4 7 6 8 5 3 6 8 7 3 3 4 4 10 13 6 12 13 10 8 7 8 8 7 5 6 10 12 10 7 11 7 15 12 9 11
4 1 0 4 3 4 2 3 4 7 4 5 3 8 9 5 4 7 5 5 3 4 6 9 9 7 10 9 6 7 10 17 10 6 13 10 8 10 8 9 13 13 15 13 13
3 4 5 4 4 4 2 1 2 5 4 6 5 9 7 10 12 8 5 3 4 6 4 5 4 4 5 8 10 6 8 12 15 13 5 8 8 5 5 8 14 21 17 16 16
3 3 1 3 5 2 2 5 7 10 8 10 9 7 3 5 10 13 6 6 4 2 3 4 4 5 4 7 7 5 9 10 7 8 8 6 14 6 10 17 20 19 24 25 19
Wind_Direction
351 351 348 345 344 341 340 337 334 333 332 331 326 323 321 318 310 170 247 213 169 132 162 208 190 142 104 105 107 105 50 360 357 7 305 353 101 139 67 142 192 171 135 148 145
350 348 345 343 340 338 338 335 332 331 331 329 324 321 323 326 286 244 250 216 117 160 174 153 116 140 65 39 51 78 128 241 28 313 332 307 207 164 124 165 33 82 107 131 147
346 345 342 339 337 336 334 331 329 329 328 326 321 320 320 321 309 252 262 189 147 188 131 116 102 120 77 28 37 142 159 283 201 281 345 324 41 318 136 217 188 148 145 147 154
343 342 339 336 335 333 331 328 326 326 324 322 320 322 317 270 284 267 13 112 155 186 135 165 82 79 134 107 256 14 230 240 272 200 290 309 302 21 198 204 154 157 154 154 163
341 337 336 334 331 330 327 323 322 320 318 317 318 324 333 338 250 273 99 119 144 161 177 182 120 132 110 118 175 215 338 308 282 295 301 250 251 241 267 118 132 145 154 162 164
338 335 333 331 330 326 323 320 318 314 310 308 308 318 266 257 260 281 120 131 152 172 185 166 169 125 115 81 94 301 311 285 297 306 290 276 273 131 166 134 142 154 163 168 170
335 333 331 330 327 323 320 317 312 306 303 295 283 261 232 236 127 99 122 159 167 189 180 126 118 58 2 53 345 328 320 0 329 321 274 92 15 175 144 145 154 165 172 174 174
334 333 331 328 326 322 318 313 306 303 295 273 219 192 245 244 275 278 172 232 172 215 227 95 93 93 110 145 180 333 23 3 304 320 21 81 234 128 154 152 165 171 177 185 191
334 332 329 328 326 321 319 311 306 305 245 148 129 172 266 289 220 242 161 209 146 155 110 125 55 101 13 53 31 224 208 195 302 215 59 63 193 159 165 171 172 180 186 191 201
333 331 328 324 320 322 322 306 289 316 166 209 256 0 268 249 227 201 202 177 169 125 112 125 95 83 110 8 245 249 250 245 246 344 38 32 30 159 177 176 189 191 192 199 203
329 322 320 320 320 322 336 351 15 23 224 196 196 244 315 280 304 255 176 154 165 135 152 164 133 180 177 204 237 240 237 216 262 219 153 176 144 172 178 186 205 205 209 209 215
320 321 320 320 318 319 262 193 196 128 297 235 246 247 254 51 312 293 142 146 139 190 129 107 202 208 175 219 225 221 210 253 298 260 178 209 232 196 186 201 198 203 211 213 214
322 322 322 320 317 45 187 235 347 10 223 278 200 204 201 154 217 264 159 167 165 180 170 168 209 212 153 176 163 264 179 199 211 277 54 52 300 206 215 205 202 210 209 217 212
323 326 330 329 30 328 257 257 283 210 356 270 228 255 154 141 254 201 186 143 179 196 134 212 211 188 143 159 157 204 210 181 72 68 94 88 281 276 213 203 200 206 205 213 213
323 324 327 333 292 285 246 308 305 95 319 226 208 310 161 160 172 213 174 124 175 157 121 233 173 159 157 190 154 201 182 161 135 117 146 175 108 269 133 202 223 216 211 209 210
319 319 321 306 217 242 324 311 78 45 254 313 151 138 134 195 191 149 142 177 158 129 33 173 304 190 193 99 208 135 122 329 72 92 31 208 154 286 192 209 247 214 219 210 205
316 312 293 232 228 146 313 29 52 166 322 317 334 151 209 190 199 163 136 141 159 121 150 18 228 296 136 97 349 100 76 2 26 23 231 23 104 247 275 242 229 214 208 207 199
319 308 246 206 229 274 14 56 174 249 257 300 322 259 155 146 236 166 117 186 248 128 130 156 253 190 179 181 178 68 129 152 180 169 258 73 238 253 268 286 253 214 198 191 196
318 330 251 240 175 159 82 111 203 214 303 345 327 49 356 45 167 138 190 198 195 170 171 152 246 92 168 150 134 229 214 149 100 17 93 264 288 299 305 30 40 124 119 142 173
315 327 261 113 164 108 85 232 228 217 343 359 27 45 348 344 338 168 175 205 212 184 170 211 174 214 152 103 52 166 152 98 352 143 228 275 281 243 237 127 100 95 120 115 107
316 4 324 141 179 56 165 226 251 270 31 6 357 322 302 293 215 196 208 255 196 206 175 144 129 256 114 187 163 121 119 74 166 149 165 190 258 212 234 162 144 130 141 140 135
335 37 17 147 70 99 172 196 260 301 36 316 235 218 211 262 296 263 203 213 192 161 169 199 155 181 207 31 71 110 156 129 135 243 237 248 259 245 227 205 167 172 145 136 114
19 278 7 7 98 317 309 290 218 250 262 245 273 212 173 255 327 212 196 213 260 177 184 175 201 91 8 358 85 178 201 176 127 107 205 167 260 3 10 318 185 135 140 150 121
25 19 345 69 212 70 6 275 247 258 248 206 229 233 271 270 195 276 227 265 331 214 242 165 144 181 201 199 153 176 188 190 147 150 199 221 246 255 268 269 152 148 134 106 93
16 357 29 326 333 354 268 293 322 356 307 236 282 218 193 261 233 225 236 319 308 325 31 147 175 167 216 178 175 182 175 187 199 194 203 216 213 258 255 160 149 127 118 116 110
32 15 350 289 300 315 357 7 316 331 267 279 222 266 201 210 204 236 171 203 225 331 53 334 208 134 163 186 180 195 221 178 200 204 201 222 237 186 109 109 151 140 134 132 132
330 323 105 281 333 349 161 348 328 321 269 250 296 287 240 213 248 238 225 173 156 176 325 83 113 128 199 111 96 323 214 190 205 223 183 195 228 161 153 165 167 157 154 159 157